Tracking 20712 objects as of 28-May-2020
HD Live streaming from Space Station
objects crossing your sky now

COSMOS 970 DEB

Track COSMOS 970 DEB now!
10-day predictions


NORAD ID: 13503
Int'l Code: 1977-121BA
Perigee: 1,009.6 km
Apogee: 1,139.8 km
Inclination: 66.5 °
Period: 106.6 minutes
Semi major axis: 7445 km
RCS: 0.0157 m2 (small)
Launch date: December 21, 1977
Source: Commonwealth of Independent States (former USSR) (CIS)
Launch site: TYURATAM MISSILE AND SPACE COMPLEX (TTMTR)

Note: This is SATELLITE DEBRIS
aabbcc
Your satellite tracking list
Your tracking list is empty




NASA's NSSDC Master Catalog

Two Line Element Set (TLE):
1 13503U 77121BA  20149.44100733 +.00000010 +00000-0 +12214-3 0  9992
2 13503 066.4714 253.2698 0087443 316.9142 118.0029 13.51280505858393
Source of the keplerian elements: AFSPC